Погода в Питляре

Погода в Питляре : погода сейчас, прогноз погоды и архив. Всё, что Вы хотите узнать о погоде в Питляре!

Хотите узнать прогноз погоды в Питляре? Тогда Вам сюда: Погода в Питляре

Поиск расширенной информации на нашем сайте:

Другие новости

Новости СМИ2

Главная страница сайта

Новости сайта

03.07.2017

Напоминаем, что на нашем специализированном сайте Метеоцентр.Азия вы можете получить высокодетализированные автоматические прогнозы погоды по пунктам России, СНГ и мира в авиационном формате (включающие направление и скорость ветра, видимость, явления погоды, количество и форму облачности, нижнюю и верхнюю границу облачности).


Погода в Питляре - сегодня

Время (UTC), дата Ветер
(°,м/с) 
Видим.   Явления Облачность Т
(°С)
Тd
(°С)
f(%) Тe
(°С)
Pmin
(гПа)
dP
(гПа)
Po
(мм)
O2
(г/м3)
Тmin Tmax R s Состояние
почвы
21 18.05.18 100 (В) 20000 м    ясно 
-4.8 -7 85 -6  1023.4  -0.1  766  315           
00 19.05.18 110 (В) 20000 м    10/0 верхняя 
[Ci fib]
-5.1 -7.3 85 -6  1022.3  -1  765  315           
03 19.05.18 090 (В) 20000 м    10/0 верхняя 
[Ci fib]
-1 -6.1 68 -3  1020.4  -1.9  764  310  -5.7      32  неравномерный
мокрый или
старый снег
100% 
06 19.05.18 130 (ЮВ) н/о    н/о 
+4.4 -4.4 53 +3  1018.3  -2.1  762  303           
09 19.05.18 140 (ЮВ) 20000 м    10/0 верхняя 
[Ci sp]
+6.3 -3.9 48 +4  1015.8  -2.4  760  300           
12 19.05.18 150 (ЮВ) 4{11}  н/о    н/о 
+7.9 -4.9 40 +7  1013  -2.8  758  297           
15 19.05.18 170 (Ю) 4{10}  20000 м    10/0 средняя 
[As op]
+5.8 -2.8 54 +4  1011  -2.1  757  299    +8.1       
18 19.05.18 130 (ЮВ) 20000 м    10/4 300 м средняя 
[Frnb|As op]
+5.2 -2.8 56 +4  1007.7  -3.3  754  299           
21 19.05.18 130 (ЮВ) 20000 м    10/4 300 м средняя 
[Frnb|As op]
+4.7 -2.4 60 +3  1004.4  -3.2  752  298           
00 20.05.18 170 (Ю) 20000 м  слаб. дождь  10/0 средняя 
[As op]
+3.8 +0.4 78 +3  1002.6  -1.8  750  298           
03 20.05.18 180 (Ю) 20000 м  {дождь}  10/0 средняя 
[As op]
+4.8 +2.1 83 +4  1001.1  -1.5  749  296  +3.6    0.0  23  неравномерный
мокрый или
старый снег
100% 
06 20.05.18 230 (ЮЗ) н/о    н/о 
+2.7 +1 89 +2  1000.8  -0.3  749  299  +2.7         
09 20.05.18 290 (З) 20000 м    10/0 средняя 
[As trans]
+4.9 +0.9 75 +6  1001.6  0.7  750  297           
12 20.05.18 320 (СЗ) н/о    н/о 
+2.4 +0 84 1003.5  751  300           
15 20.05.18 320 (СЗ) 4{10}  20000 м    10/0 средняя 
[Ac As]
+1.3 -0.2 90 -1  1006.9  3.3  754  302    +5.4       
18 20.05.18 320 (СЗ) 5{10}  20000 м    10/0 средняя 
[Ac As]
+0.4 -1.5 87 -3  1009.3  2.4  755  304           
21 20.05.18 320 (СЗ) 20000 м    10/0 средняя, верхняя 
[Ac lent|Ci sp]
-2 -3.6 89 -5  1011.6  2.3  757  308           
00 21.05.18 310 (СЗ) 20000 м    10/0 верхняя 
[Ci fib]
-2.7 -4.2 89 -6  1014.1  2.5  759  309           
03 21.05.18 310 (СЗ) 20000 м    ясно 
+0.3 -3.2 77 -1  1015.6  1.5  760  306  -3      12  неравномерный
мокрый или
старый снег
100% 
06 21.05.18 220 (ЮЗ) н/о    н/о 
+2.3 -2.5 71 +2  1016.6  761  304           
09 21.05.18 230 (ЮЗ) 20000 м    10/0 верхняя 
[Ci sp]
+3.7 -2 66 +2  1017.1  0.5  761  303           
12 21.05.18 230 (ЮЗ) н/о    н/о 
+3.3 -1 73 +1  1016.4  -0.7  761  303           
15 21.05.18 210 (ЮЗ) 20000 м    10/0 средняя, верхняя 
[Ac lent|Ci sp]
+2.5 -0.5 81 +1  1013.7  -2.7  759  303    +4.1       
18 21.05.18 220 (ЮЗ) 20000 м    10/0 средняя 
[As op]
+1.7 -0.6 85 1010  -3.7  756  303           
21 21.05.18 200 (Ю) 20000 м  слаб. дождь  10/9 300 м средняя 
[Frnb|As op]
+2.5 +1 90 1003.6  -6.3  751  300           
Время (UTC), дата Ветер
(°,м/с) 
Видим.   Явления Облачность Т
(°С)
Тd
(°С)
f(%) Тe
(°С)
Pmin
(гПа)
dP
(гПа)
Po
(мм)
O2
(г/м3)
Тmin Tmax R s Состояние
почвы

Для получения пояснительной информации подведите курсор к названию столбца.

ПОГОДА в Питляре - архив

Всё, что Вы хотите узнать о погоде в Питляре - удобно и подробно!

Выберите нужную дату (начиная с 1 января 2015* года) и нажмите кнопку "Найти".
Будут отображены архивные сводки погоды по пункту Питляр, начиная с указанной даты.


Отображать данные в формате CSV (для использования в таблицах Excel)


Внимание! Наш архив погоды предназначен исключительно для личного некоммерческого использования в познавательных целях. Если Вам необходимы официальные справки о состоянии погоды (для производственных, юридических, коммерческих и т.п. целей), обращайтесь в органы Росгидромета.

*Примечание: данная дата относится к архиву по метеостанциям СССР (Россия, СНГ, Балтия).
Архив по метеостанциям Зарубежной Европы и Азии (кроме Китая) хранится 10 дней, по другим регионам земного шара (Китай, Африка, Америка, Австралия, Океания) - 1 день.

Питляр - район местоположения метеостанции


Название, широта, долгота, высота метеостанции:
Питляр 65.8°ш. 66°д. 17 м над ур. моря [Российская Федерация]

Дополнительная информация

В oтличие oт бoльшинства пoгoдных сайтoв мы публикуем пoдрoбную метеoинфoрмацию в детальнoм прoфессиoнальнoм фoрмате.

Характеристики температуры и влажнoсти вoздуха измеряются на высoте 2 м в тени вдали oт зданий и деревьев.
Скoрoсть ветра измеряется на высoте 10 м (на урoвне рoста челoвека скoрoсть ветра ниже в 1.5-2 раза). Если метеoстанция нахoдится в гoрoде или в лесу, тo скoрoсть ветра занижена на 2-4 м/с пo сравнению с oткрытым местoм. Скoрoсть ветра над акватoриями крупных рек и oзёр, а также на вершинах хoлмoв на 2-5 м/с выше, чем в oбычных услoвиях.
Атмoсфернoе давление в разных тoчках местнoсти мoжет значительнo oтличаться oт давления на метеoстанции, в зависимoсти oт услoвий рельефа (при пoдъёме на 10 м давление пoнижается примернo на 1 мм рт.ст.).